Regional Weather Roundup
Issued by NWS Wakefield, VA

Home | Current Version | Previous Version | Text Only | Print | Product List | Glossary On
Versions: 1 2 3 4 5 6 7 8 9 10 11 12 13 14 15 16 17 18 19 20 21 22 23 24 25 26 27 28
000
ASUS41 KAKQ 232215
RWRAKQ

REGIONAL WEATHER ROUNDUP
NATIONAL WEATHER SERVICE WAKEFIELD VA
600 PM EDT TUE AUG 23 2016

Note: "fair" indicates few or no clouds below 12,000 feet with no
significant weather and/or obstructions to visibility. * = Denotes
station may not report precipitation (e.g., rain,snow,etc.),
thunder or fog.

VAZ042-051-052>054-056-232300-
NORTHERN VIRGINIA

CITY           SKY/WX    TMP DP  RH WIND       PRES   REMARKS
WASH NATIONAL  MOSUNNY   83  59  44 S8        30.26F
DULLES         MOSUNNY   82  57  42 W7        30.26F
FORT BELVOIR   SUNNY     81  59  47 VRB2      30.26F
QUANTICO       MOSUNNY   82  59  45 S5        30.27F
FREDERICKSBRG*   N/A     82  63  52 SE5       30.25F
STAFFORD*      SUNNY     81  59  46 SE5       30.30F
WARRENTON      SUNNY     82  57  41 S5        30.26F
CULPEPER*      MOSUNNY   82  64  53 CALM      30.27F
MANASSAS*      SUNNY     81  63  54 S5        30.27F
LEESBURG*      SUNNY     84  61  45 CALM      30.28S
WINCHESTER     SUNNY     79  61  53 S6        30.27F
FRONT ROYAL*   FAIR      81  64  57 CALM      30.26F
LURAY*         FAIR      81  61  50 SW5       30.27F
$$

VAZ048-049-060>072-079>083-232300-
CENTRAL AND SOUTH CENTRAL VIRGINIA

CITY           SKY/WX    TMP DP  RH WIND       PRES   REMARKS
RICHMOND       MOSUNNY   81  58  45 E7        30.26S
CHESTERFIELD*  FAIR      82  54  36 CALM      30.27F
PETERSBURG*    SUNNY     80  62  54 CALM      30.26S
HANOVER        PTSUNNY   81  66  60 CALM      30.28S
TAPPAHANNOCK*  SUNNY     83  56  39 E6        30.28S
QUINTON*       FAIR      82  60  46 N5        30.26S
CHARLOTTSVILLE MOSUNNY   83  62  49 CALM      30.27S
GORDONSVILLE*  MOCLDY    82  64  54 CALM      30.26F
ORANGE*          N/A     81  63  54 CALM      30.29S
LOUISA*        SUNNY     84  68  58 CALM      30.26F
BUMPASS*       FAIR      80  65  58 CALM      30.27S
FARMVILLE*     SUNNY     84  59  42 CALM      30.24F
CREWE*         FAIR      83  63  50 E5        30.25F
FORT PICKETT*  NOT AVBL
CHASE CITY*    FAIR      84  57  38 CALM      30.25S
CLARKSVILLE*   FAIR      84  59  42 NE3       30.24F
SOUTH HILL*    SUNNY     83  63  50 CALM      30.30F
LAWRENCEVILLE* FAIR      82  64  54 E3        30.25S
EMPORIA*       SUNNY     81  59  47 N5        30.26F
$$

VAZ088>098-232300-
SOUTHEAST VIRGINIA

CITY           SKY/WX    TMP DP  RH WIND       PRES   REMARKS
NORFOLK        SUNNY     78  58  49 E9        30.26F
VIRGINIA BEACH MOSUNNY   83  56  39 E7        30.26F
NORFOLK NAVAL  SUNNY     79  58  48 E8        30.28F
WEST POINT*    SUNNY     82  55  39 NE7       30.28S
SALUDA*        FAIR      79  59  50 E6        30.27S
NEWPORT NEWS   SUNNY     80  57  45 E8        30.26F
LANGLEY AFB    SUNNY     79  60  50 E9        30.26F
FORT EUSTIS    SUNNY     86  58  38 E9        30.24F
WILLIAMSBURG*  SUNNY     86  61  42 E5        30.27S
HR EXEC AP*    FAIR      82  55  39 E6        30.28S
FRANKLIN*      SUNNY     82  58  44 E8        30.26S
US460-WAKEFLD  MOSUNNY   82  58  43 SE6       30.25F
$$

VAZ020-022-025-037-045-232300-
WEST CENTRAL AND SOUTHWEST VIRGINIA

CITY           SKY/WX    TMP DP  RH WIND       PRES   REMARKS
STAUNTON*      SUNNY     79  61  53 SE7       30.30F
WAYNESBORO*    CLOUDY    76  61  60 SE7       30.30F
HOT SPRINGS VA MOSUNNY   69  59  69 S6        30.39F
LYNCHBURG      PTSUNNY   80  62  54 NE7       30.28F
DANVILLE       MOSUNNY   84  62  47 CALM      30.25F
SOUTH BOSTON*  FAIR      85  59  41 SE3       30.25S
MARTINSVILLE   SUNNY     82  61  48 CALM      30.29S
ROANOKE        PTSUNNY   80  62  54 SE6       30.29F
BLACKSBURG     CLOUDY    78  63  60 E6        30.35S HAZE
DUBLIN*        SUNNY     82  57  43 CALM      30.33S
MARION*        PTSUNNY   78  61  56 E3        30.35S
HILLSVILLE*    SUNNY     75  60  60 S5        30.34S
RICHLANDS*     FAIR      79  62  56 W3        30.32S
WISE*          MOSUNNY   79  52  38 SW7       30.33S
ABINGDON*      MOSUNNY   82  60  46 CALM      30.28F
$$

MDZ021>025-VAZ099-100-232300-
SOUTHERN MARYLAND AND THE DELMARVA PENINSULA

CITY           SKY/WX    TMP DP  RH WIND       PRES   REMARKS
PATUXENT RIVER MOSUNNY   79  55  43 E7        30.27F
BAY BRIDGE APT SUNNY     81  57  44 S6        30.27F
LEONARDTOWN    SUNNY     79  55  44 E3        30.29S
DOVER          SUNNY     79  62  56 SE7       30.26F
GEORGETOWN     SUNNY     79  53  40 SE6       30.28F
EASTON         SUNNY     81  63  54 CALM      30.31F
CAMBRIDGE      SUNNY     79  55  44 CALM      30.27F
SALISBURY      SUNNY     80  55  42 N6        30.27F
OCEAN CITY     SUNNY     75  57  53 E8        30.28F
WALLOPS ISLAND SUNNY     77  55  46 E9        30.28F
ACCOMACK*      SUNNY     77  53  42 E6        30.28S
$$

NCZ012>017-030>032-232300-
NORTH CENTRAL AND EASTERN NORTH CAROLINA

CITY           SKY/WX    TMP DP  RH WIND       PRES   REMARKS
ROANOKE RAPIDS FAIR      81  63  54 E6        30.24F
RALEIGH        MOSUNNY   86  59  39 NE5       30.24S
ELIZABETH CITY SUNNY     80  58  46 NE12      30.26F
AHOSKIE*       SUNNY     81  61  50 NE5       30.25S
EDENTON*       MOSUNNY   82  59  45 NE6       30.25F
CURRITUCK*       N/A     80  57  46 NE8       30.27S
KILL DEVIL HLS SUNNY     80  63  55 NE6       30.25S
MANTEO         SUNNY     78  59  51 NE14G20   30.26S
CAPE HATTERAS  SUNNY     80  60  50 NE9G21    30.24F
TARBORO*       MOCLDY    84  66  53 E6        30.24F
GOLDSBORO      MOSUNNY   87  60  39 E9        30.21F
WASHINGTON     MOSUNNY   80  66  60 NE6       30.24S
GREENVILLE     SUNNY     84  64  51 E9        30.24S
NEW BERN       SUNNY     82  64  54 E5        30.24S
WILMINGTON     SUNNY     84  63  49 E9        30.22S
$$

VAZ048-232300-
ELSEWHERE

CITY           SKY/WX    TMP DP  RH WIND       PRES   REMARKS
HARRISBURG PA  MOSUNNY   82  60  47 W5        30.25F
BALTIMORE      MOSUNNY   80  58  46 CALM      30.26F
ANNAPOLIS      SUNNY     79  58  48 SE9       30.27F
ANDREWS AFB    SUNNY     79  60  50 SE9       30.26F
PHILADELPHIA   MOSUNNY   82  53  36 SW7       30.26F
HENDERSON NC   SUNNY     81  57  44 CALM      30.25F
GREENSBORO     PTSUNNY   84  60  44 NE8       30.25S
ROCKY MOUNT    SUNNY     85  62  46 NE5       30.23F
$$

VAZ100-232300-
MARINE

STATION/POSITION TIME  TEMP    WIND        PRES    WAVE   SWELL
                       AIR SEA DIR/SP/G            HT/PER HT/PER
                 (UTC) (F)     (DEG/KT/KT) (MB)    (FT/S) (FT/S)
BRANDYWINE LGT   2100   74     190/  5/  6   N/A
CAPE MAY NJ      2100   75 74  240/  5/  6 1025.3F
LEWES DE         2100   75 77   80/  5/  6 1025.6F
OCEAN-CITY-INLET 2100   75 73   90/  5/  7 1026.1F
WACHAPREAGUE VA  2100   76 83   70/  9/ 12 1025.5F
THOMAS POINT MD  2200   78 83  150/  5/  6 1026.2F
GOOSES REEF MD   2100   81 85   40/  2/  4 1026.1F   1
COVE POINT MD    2100   79      60/  2/  5 1026.0F
SOLOMONS ISLAND  2100   78 85   80/  5/  7   N/A
BISHOPS HEAD MD  2100   78 81  290/  7/  9 1025.8F
PINEY POINT MD   2100          180/  4/  5   N/A
POTOMAC MD       2100   79 84  110/  4/  6 1024.6F   0
CAMBRIDGE MD     2100   79 83  340/  5/  6 1024.6F
LEWISETTA VA     2100   78 82  110/  4/  5 1025.2F
RAPPAHANNOCK LGT 2100          360/  9/ 10 1025.9F
STINGRAY PT      2100   79 84  340/  6/  8 1025.9F   1
YORKTOWN VA      2100   79 83  100/  7/ 10 1024.7F
JAMESTOWN VA     2100   82 87   90/  6/ 10   N/A     0
DOMINION TERM VA 2100   79     110/  6/ 12 1025.1F
KIPTOPEKE VA     2100      78   80/  8/ 10   N/A
CHES BAY BRIDGE  2100   76 76   60/  9/ 10 1025.2F
CAPE HENRY VA    2100   76      50/  9/ 10   N/A
WILLOUBY STN VA  2100   77      90/  9/ 11   N/A
CAPE HENRY BUOY  2112      80                N/A     3/ 6
1ST LANDING BUOY 2100   77 78   80/  8/  8 1025.2F   1/ 3
CAPE CHARLES BUO 2126      78                N/A     2/ 5
OFFSHORE WE BUOY 2121      81                N/A     3/ 6
64NM E OF VA BCH 2150   77 82   20/ 12/ 16 1024.4F   3/ 6   2/ 6
DUCK PIER NC     2100   77 78   30/ 14/ 17 1024.2F
44100 DUCK FRF   2105      80                N/A     4/ 6
44056 DUCK FRF   2111      79                N/A     3/ 6
OREGON INLET NC  2100   79 79   10/ 10/ 15 1024.6F
HATTERAS NC      2100   80 80   30/ 12/ 17 1023.9F
DIAMOND SHLS NC  2150   80 85   30/ 19/ 21 1023.5F   4/ 8   2/ 8
CAPE LOOKOUT NC  2200   80      60/ 17/ 19 1023.3F
$$




USA.gov is the U.S. government's official web portal to all federal, state and local government web resources and services.